This is the latest recevied weather packets stored in our database for station/object W7BTL. If no packets are shown the sender has not sent any weather packets the latest 10 day(s).
| Time | Temp. | Humidity | Pressure | Rain* | Wind** | Luminosity | Snow |
|---|---|---|---|---|---|---|---|
| 1787870409 | 35.56° C | 42% | 1009 hPa | 0 mm | - | 197 W/m² | - |
| 1787870104 | 36.11° C | 40% | 1009.2 hPa | 0 mm | - | 269 W/m² | - |
| 1787869802 | 36.11° C | 40% | 1009.2 hPa | 0 mm | - | 266 W/m² | - |
| 1787869497 | 36.67° C | 40% | 1009.3 hPa | 0 mm | - | 465 W/m² | - |
| 1787869196 | 36.67° C | 35% | 1009.4 hPa | 0 mm | - | 641 W/m² | - |
| 1787868891 | 36.11° C | 37% | 1009.5 hPa | 0 mm | - | 807 W/m² | - |
| 1787868589 | 35.56° C | 35% | 1009.8 hPa | 0 mm | - | 385 W/m² | - |
| 1787868289 | 35.56° C | 37% | 1009.8 hPa | 0 mm | - | 379 W/m² | - |
| 1787867984 | 35.56° C | 37% | 1009.7 hPa | 0 mm | - | 455 W/m² | - |
| 1787867680 | 36.11° C | 36% | 1009.9 hPa | 0 mm | - | 365 W/m² | - |
| 1787867380 | 36.67° C | 35% | 1010 hPa | 0 mm | - | 362 W/m² | - |
| 1787867076 | 36.67° C | 36% | 1010 hPa | 0 mm | - | 557 W/m² | - |
| 1787866771 | 36.67° C | 36% | 1010.1 hPa | 0 mm | - | 499 W/m² | - |
| 1787866470 | 36.11° C | 37% | 1010.2 hPa | 0 mm | - | 412 W/m² | - |
| 1787866169 | 35.56° C | 38% | 1010.2 hPa | 0 mm | - | 883 W/m² | - |
| 1787865864 | 35.56° C | 39% | 1010.3 hPa | 0 mm | - | 896 W/m² | - |
| 1787865560 | 35.56° C | 40% | 1010.5 hPa | 0 mm | - | 614 W/m² | - |
| 1787865255 | 35° C | 42% | 1010.4 hPa | 0 mm | - | 755 W/m² | - |
| 1787864950 | 33.89° C | 44% | 1010.4 hPa | 0 mm | - | 691 W/m² | - |
| 1787864647 | 33.33° C | 45% | 1010.6 hPa | 0 mm | - | 396 W/m² | - |
| 1787864346 | 33.33° C | 50% | 1010.8 hPa | 0 mm | - | 400 W/m² | - |
| 1787864045 | 33.33° C | 53% | 1010.6 hPa | 0 mm | - | 315 W/m² | - |
| 1787863744 | 33.89° C | 53% | 1010.7 hPa | 0 mm | - | 317 W/m² | - |
| 1787863443 | 34.44° C | 46% | 1010.4 hPa | 0 mm | - | 150 W/m² | - |
| 1787863139 | 34.44° C | 45% | 1010.6 hPa | 0 mm | - | 128 W/m² | - |
* Rain latest hour (hover to see other rain measurements)
** Current wind speed in m/s (hover to see current wind gust speed)